Location: *
(45.9500°N, 9.0833°E)
Time: 10:00:47
(UTC+00:00)

SR - Visible Passes

Search period start: 15 June 2021 00:00
Search period end: 25 June 2021 00:00
Orbit: 574 x 880 km, 66.7° (Epoch: 14 June)

Date Brightness Start Highest point End Pass type
(mag) Time Alt. Az. Time Alt. Az. Time Alt. Az.
15 Jun ? 01:04:19 10° NNW 01:09:33 46° NE 01:14:18 10° ESE visible
15 Jun ? 02:46:53 10° NW 02:51:22 29° WSW 02:55:30 10° SSW visible
15 Jun ? 22:34:36 10° N 22:35:17 10° NNE 22:35:59 10° NNE visible
16 Jun ? 00:14:43 10° NNW 00:19:23 28° NE 00:23:42 10° E visible
16 Jun ? 01:56:38 10° NW 02:01:51 56° WSW 02:06:34 10° SSE visible
16 Jun ? 19:57:53 10° NW 19:59:33 11° NNW 20:01:12 10° N visible
16 Jun ? 23:25:15 10° N 23:29:01 18° NNE 23:32:36 10° ENE visible
17 Jun ? 01:06:42 10° NNW 01:12:06 77° NE 01:16:58 10° SE visible
17 Jun ? 02:50:24 10° WNW 02:53:22 16° WSW 02:56:12 10° SW visible
17 Jun ? 22:35:58 10° N 22:38:29 13° NNE 22:40:56 10° NE visible
18 Jun ? 00:16:58 10° NNW 00:22:07 43° NE 00:26:49 10° ESE visible
18 Jun ? 01:59:28 10° NW 02:04:01 31° WSW 02:07:36 13° SSW visible
18 Jun ? 23:27:24 10° NNW 23:31:57 26° NE 23:36:10 10° E visible
19 Jun ? 01:09:15 10° NW 01:14:28 60° WSW 01:17:45 20° SSE visible
19 Jun ? 22:37:57 10° N 22:41:34 18° NNE 22:45:00 10° ENE visible
20 Jun ? 00:19:21 10° NNW 00:24:42 73° NE 00:28:10 19° SE visible
20 Jun ? 02:02:52 10° WNW 02:06:01 17° WSW 02:07:30 15° SW visible
20 Jun ? 21:48:42 10° N 21:51:01 13° NNE 21:53:15 10° NE visible
20 Jun ? 23:29:38 10° NNW 23:34:42 40° NE 23:38:45 13° ESE visible
21 Jun ? 01:12:03 10° NW 01:16:39 33° WSW 01:18:05 27° SW visible
21 Jun ? 22:40:04 10° NNW 22:44:30 25° NE 22:48:38 10° E visible
22 Jun ? 00:21:52 10° NW 00:27:05 64° WSW 00:28:49 38° S visible
22 Jun ? 21:50:38 10° N 21:54:06 17° NNE 21:57:24 10° ENE visible
22 Jun ? 23:31:59 10° NNW 23:37:18 68° NE 23:39:39 30° SE visible
23 Jun ? 01:15:21 10° WNW 01:18:41 18° WSW 01:19:00 18° WSW visible
23 Jun ? 21:01:28 10° N 21:03:32 12° NNE 21:05:34 10° NE visible
23 Jun ? 22:42:17 10° NNW 22:47:16 38° NE 22:50:34 17° ESE visible
24 Jun ? 00:24:37 10° NW 00:29:18 35° WSW 00:29:56 33° SW visible
24 Jun ? 21:52:44 10° NNW 21:57:03 24° NE 22:01:05 10° E visible
24 Jun ? 23:34:29 10° NW 23:39:42 69° WSW 23:40:56 48° S visible
